Find Starlink 3146

NORAD ID: 49414 Int'l Des: 2021-104 Owner: SPXS Country: US Constellation: starlink operational
LEOCIRCULAR

当前视图

正在加载3D地球...

About Starlink 3146

Starlink 3146 (NORAD 49414) is a starlink constellation satellite (v1.5) launched Nov 13, 2021 by SPXS of US. It operates in LEO, CIRCULAR orbit with a mass of 290.00 kg.

关于 Starlink 3146

正在加载描述...

即将过境

Passes for default location (London). Set your location on the main map for personalized predictions.

高度历史

Loading altitude history...

两行轨道根数

1 49414U 21104G 26170.59279314 .00004815 00000-0 32011-3 0 9994
2 49414 53.1613 131.5538 0001523 100.6404 259.4759 15.08876888254017
Epoch: Jun 19, 2026 • Age: 5 hours

当前状态

高度 540.8 km
速度 7.60 km/s
星下点 32.06°N, 80.58°E
发射日期 Nov 13, 2021
运行时间 4.5 years
类型 internet

技术详情

分类 Payload
质量 290.00 kg
干质量 270.00 kg
总质量 290.00 kg
长度 0.20 m
直径 2.80 m
跨度 9.00 m
形状 Box + pan
制造商 SPXS
平台类型 Starlink
阶段状态 In Orbit
所有者/国家 SPXS/US

Most Searched